Weather History for Estherville, IA

Change the Weather History Date:

Tuesday, March 11, 2014

  Actual Average Record
Temperature  
Mean Temperature 35 °F 30 °F  
Max Temperature 39 °F 39 °F 70 °F (1967)
Min Temperature 30 °F 22 °F -8 °F (1969)
Degree Days  
Heating Degree Days 30 35  
Month to date heating degree days 529 407  
Since 1 July heating degree days 7020 6322  
Cooling Degree Days 0 0  
Month to date cooling degree days 0 0  
Year to date cooling degree days 0 0  
Moisture  
Dew Point 34 °F    
Average Humidity 89    
Maximum Humidity 100    
Minimum Humidity 78    
Precipitation  
Precipitation 0.06 in 0.03 in 0.60 in (1951)
Month to date precipitation 0.07 0.31  
Sea Level Pressure  
Sea Level Pressure 29.85 in    
Wind  
Wind Speed 18 mph (NNE)    
Max Wind Speed 30 mph    
Max Gust Speed 37 mph    
Visibility 8 miles    
Events Snow    
T = Trace of Precipitation, MM = Missing Value Source: NWS Daily Summary

Daily Weather History Graph

Daily Weather History Graph

Search for Another Location

Airport:

Trip Planner

Search our weather history database for the weather conditions in past years. The results will help you decide how hot, cold, wet, or windy it might be!

Date:

Astronomy

Mar. 11, 2014 Rise Set
Actual Time 7:38 AM CDT 7:20 PM CDT
Civil Twilight 7:09 AM CDT 7:48 PM CDT
Nautical Twilight 6:36 AM CDT 8:22 PM CDT
Astronomical Twilight 6:03 AM CDT 8:55 PM CDT
Moon 2:51 PM CDT (3/11) 4:38 AM CDT (3/11)
Length of Visible Light 12h 39m
Length of Day
11h 42m
Waxing Gibbous, 78% of the Moon is Illuminated
Mar 11
Waxing Gibbous
Mar 16
Full
Mar 23
Last Quarter
Mar 30
New
Apr 7
First Quarter

Hourly Weather History & Observations

Time (CDT) Temp. Windchill Dew Point Humidity Pressure Visibility Wind Dir Wind Speed Gust Speed Precip Events Conditions
12:52 AM 37.0 °F 31.0 °F 37.0 °F 100% 29.70 in 5.0 mi NE 8.1 mph - N/A   Overcast
1:52 AM 37.0 °F 31.0 °F 37.0 °F 100% 29.70 in 8.0 mi NNE 8.1 mph - N/A   Overcast
2:52 AM 39.0 °F 31.8 °F 39.0 °F 100% 29.70 in 9.0 mi NNE 11.5 mph - N/A   Overcast
3:52 AM 37.9 °F 30.0 °F 37.0 °F 97% 29.68 in 10.0 mi NE 12.7 mph - N/A   Mostly Cloudy
4:52 AM 37.9 °F 29.2 °F 35.1 °F 89% 29.68 in 10.0 mi NNE 15.0 mph - N/A   Clear
5:52 AM 37.0 °F 27.7 °F 34.0 °F 89% 29.68 in 10.0 mi NNE 16.1 mph - N/A   Partly Cloudy
6:52 AM 36.0 °F 26.3 °F 34.0 °F 93% 29.71 in 10.0 mi NNE 16.1 mph - N/A   Mostly Cloudy
7:52 AM 36.0 °F 25.6 °F 35.1 °F 97% 29.75 in 10.0 mi NNE 18.4 mph - N/A   Overcast
8:48 AM 35.6 °F 24.8 °F 35.6 °F 100% 29.75 in 10.0 mi NNE 19.6 mph 25.3 mph N/A   Overcast
8:52 AM 36.0 °F 26.0 °F 36.0 °F 100% 29.79 in 10.0 mi NNE 17.3 mph 25.3 mph N/A   Overcast
8:55 AM 36.0 °F 26.0 °F 36.0 °F 100% 29.76 in 10.0 mi NNE 17.3 mph 25.3 mph N/A   Overcast
9:52 AM 35.1 °F 23.5 °F 35.1 °F 100% 29.82 in 10.0 mi NNE 21.9 mph 29.9 mph N/A   Overcast
10:40 AM 34.0 °F 23.4 °F 34.0 °F 100% 29.81 in 4.0 mi NNE 17.3 mph - 0.00 in Snow Light Snow
10:52 AM 34.0 °F 23.4 °F 34.0 °F 100% 29.86 in 6.0 mi North 17.3 mph 21.9 mph 0.00 in   Overcast
11:03 AM 34.0 °F 23.4 °F 34.0 °F 100% 29.83 in 6.0 mi NNE 17.3 mph - 0.00 in Snow Light Snow
11:25 AM 34.0 °F 23.4 °F 34.0 °F 100% 29.84 in 4.0 mi North 17.3 mph - 0.01 in Snow Light Snow
11:39 AM 33.1 °F 21.2 °F 33.1 °F 100% 29.84 in 2.5 mi North 20.7 mph - 0.02 in Snow Light Snow
11:52 AM 33.1 °F 22.6 °F 33.1 °F 100% 29.88 in 1.5 mi North 16.1 mph 25.3 mph 0.03 in Snow Light Snow
12:01 PM 33.1 °F 22.6 °F 33.1 °F 100% 29.85 in 1.8 mi NNE 16.1 mph - 0.01 in Snow Light Snow
12:52 PM 33.1 °F 23.0 °F 33.1 °F 100% 29.90 in 1.2 mi NNE 15.0 mph - 0.02 in Snow Light Snow
1:17 PM 33.1 °F 23.4 °F 33.1 °F 100% 29.86 in 2.0 mi NNE 13.8 mph - 0.01 in Snow Light Snow
1:25 PM 33.1 °F 22.6 °F 33.1 °F 100% 29.86 in 2.5 mi NNE 16.1 mph - 0.01 in Snow Light Snow
1:33 PM 34.0 °F 24.2 °F 34.0 °F 100% 29.86 in 3.0 mi NNE 15.0 mph - 0.01 in Snow Light Snow
1:52 PM 34.0 °F 24.6 °F 34.0 °F 100% 29.89 in 6.0 mi NNE 13.8 mph - 0.01 in Snow Light Snow
2:03 PM 35.1 °F 25.9 °F 35.1 °F 100% 29.85 in 10.0 mi NNE 13.8 mph - 0.00 in   Overcast
2:52 PM 36.0 °F 25.3 °F 33.1 °F 89% 29.88 in 10.0 mi North 19.6 mph - 0.00 in   Overcast
3:52 PM 36.0 °F 25.6 °F 32.0 °F 86% 29.91 in 10.0 mi North 18.4 mph 26.5 mph N/A   Overcast
4:52 PM 37.0 °F 26.4 °F 32.0 °F 82% 29.94 in 10.0 mi North 20.7 mph - N/A   Overcast
5:52 PM 37.0 °F 26.2 °F 33.1 °F 86% 29.98 in 10.0 mi North 21.9 mph 26.5 mph N/A   Overcast
6:52 PM 36.0 °F 27.5 °F 33.1 °F 89% 30.00 in 10.0 mi North 12.7 mph - N/A   Partly Cloudy
7:52 PM 35.1 °F 25.2 °F 33.1 °F 92% 30.02 in 10.0 mi NNW 16.1 mph 23.0 mph N/A   Clear
8:52 PM 34.0 °F 23.0 °F 30.0 °F 85% 30.04 in 10.0 mi NNW 18.4 mph 24.2 mph N/A   Clear
9:52 PM 33.1 °F 20.3 °F 28.9 °F 85% 30.05 in 10.0 mi NNW 24.2 mph - N/A   Clear
10:52 PM 30.0 °F 16.0 °F 27.0 °F 88% 30.06 in 10.0 mi NNW 25.3 mph 31.1 mph N/A   Clear
11:52 PM 30.0 °F 16.0 °F 25.0 °F 82% 30.07 in 10.0 mi NNW 25.3 mph 33.4 mph N/A   Clear